Regional Weather Roundup
Issued by NWS New Orleans/Baton Rouge, LA

Home | Current Version | Previous Version | Text Only | Print | Product List | Glossary On
Versions: 1 2 3 4 5 6 7 8 9 10 11 12 13 14 15 16 17 18 19 20 21 22 23 24 25 26 27 28 29 30 31 32 33 34 35 36 37 38 39 40 41 42 43 44 45 46 47 48 49 50
869
ASUS44 KLIX 200905
RWRLIX
NEW ORLEANS REGIONAL WEATHER ROUNDUP
NATIONAL WEATHER SERVICE NEW ORLEANS LA
400 AM CDT SUN APR 20 2014

NOTE: "FAIR" INDICATES FEW OR NO CLOUDS BELOW 12,000 FEET WITH NO
      SIGNIFICANT WEATHER AND/OR OBSTRUCTIONS TO VISIBILITY.
      SKY/WX - SKY CONDITION AND SIGNIFICANT WEATHER.
      TMP - AIR TEMPERATURE.     DP    - DEWPOINT TEMPERATURE.
      RH  - RELATIVE HUMIDITY.   PRES  - PRESSURE.
      HI  - HEAT INDEX.          WCI   - WIND CHILL INDEX.

*  THESE STATIONS ARE NOT NWS OR FAA STATIONS AND ARE NOT UNDER
   NWS QUALITY CONTROL.

LAZ038-040-048-061>063-065>067-069-201000-
SOUTHEAST LOUISIANA

CITY           SKY/WX    TMP DP  RH WIND       PRES   REMARKS
N.O. AUDUBON     N/A     62  56  82 MISG        N/A
N.O. INTL ARPT CLEAR     61  58  90 CALM      30.12R
N.O. LAKEFRONT CLEAR     65  58  78 N8        30.13R
N.O. DOWNTOWN*   N/A     66  54  63 CALM      30.13R
SLIDELL        CLEAR     54  51  90 CALM      30.12R
BATON ROUGE    CLEAR     56  52  86 NE3       30.13S
BOOTHVILLE     CLEAR     61  60  97 CALM      30.12R
BELLE CHASSE   CLEAR     55  52  89 CALM      30.11R
BOGALUSA*        N/A     52  49  89 CALM      30.14R
GALLIANO*      SUNNY     58  56  94 CALM      30.12S
NEW ROADS*       N/A     55  54  95 CALM      30.14S
GONZALES*        N/A     56  56 100 CALM      30.13S
HAMMOND*       CLEAR     54  50  87 CALM      30.14R
HOUMA*           N/A     56  54  93 CALM      30.12S
PORT FOURCHON* SUNNY     66  63  88 W7        30.13S

$$

MSZ070-080>082-201000-
SOUTHERN MISSISSIPPI

CITY           SKY/WX    TMP DP  RH WIND       PRES   REMARKS
MCCOMB         CLEAR     53  50  89 NW3       30.14R
GULFPORT       CLEAR     58  52  80 CALM      30.12R
BILOXI         CLEAR     61  56  83 E5        30.12R
PASCAGOULA     CLEAR     53  52  96 CALM      30.12R

$$

COASTAL OBSERVATIONS
LAKE AND NEARSHORE STATIONS

STATION/POSITION TIME  TEMP    WIND        PRES    WAVE
                       AIR SEA DIR/SP/G            HT/PER
                 (UTC) (F)     (DEG/KT/KT) (MB)    (FT/S)
PASCAGOULA       0900   63      70/  6/ 10 1019.1
WAVELAND YACHT   0900   62 69   70/  5/  6 1019.0
GRAND ISLE       0900   67 68  300/  9/ 10 1020.0
SOUTHWEST PASS   0900   65 58  310/  8/ 10 1019.7
NEW CANAL        0900   67 67  360/  3/  4 1020.4
SHELL BEACH      0900   67 66  360/  6/  7 1019.7

OFFSHORE STATIONS

STATION/POSITION TIME  TEMP    WIND        PRES    WAVE
                       AIR SEA DIR/SP/G            HT/PER
                 (UTC) (F)     (DEG/KT/KT) (MB)    (FT/S)
64 S DAUPHIN ISL 0751   67 70   50/ 16/ 17 1019.3

$$




USA.gov is the U.S. government's official web portal to all federal, state and local government web resources and services.